Regional Weather Roundup
Issued by NWS

Home | Current Version | Previous Version | Text Only | Print | Product List | Glossary On
Versions: 1 2 3 4 5 6 7 8 9 10 11 12 13 14 15 16 17 18 19 20 21 22 23 24 25 26 27
000
ASUS42 KFFC 232103
RWRGA
WEATHER ROUNDUP FOR GEORGIA
NATIONAL WEATHER SERVICE PEACHTREE CITY GA
500 PM EDT SAT JUL 23 2016

NOTE: "FAIR" INDICATES FEW OR NO CLOUDS BELOW 12,000 FEET WITH NO
SIGNIFICANT WEATHER AND/OR OBSTRUCTIONS TO VISIBILITY.

* = USE WITH CAUTION. THE STATIONS MARKED WITH AN ASTERISK MAY NOT
REPORT WEATHER SUCH AS PRECIPITATION, FOG, OR THUNDER AND ARE NOT
QUALITY CONTROLLED BY NWS.

THE REMARK "TC" DENOTES TEMPERATURE READING IN DEGREES CELSIUS.

GAZ001>058-232200-
NORTH GEORGIA

CITY           SKY/WX    TMP DP  RH WIND       PRES   REMARKS
ATLANTA        CLOUDY    91  68  46 S3        30.01F HX  95
ATHENS         LGT RAIN  77  74  90 VRB5      30.02F
CHAMBLEE       LGT RAIN  78  72  81 VRB3      30.03S
PEACHTREE CITY MOSUNNY   91  69  48 VRB3      29.99F HX  96
ROME           LGT RAIN  75  71  87 CALM      29.99F FOG
WEST ATLANTA   CLOUDY    86  73  65 NE8       30.00F HX  93
CARTERSVILLE   CLOUDY    76  73  91 NE6       30.00F


CITY           SKY/WX    TMP DP  RH WIND       PRES   REMARKS
DALTON*        PTSUNNY   79  72  78 SE3       30.01F
LAWRENCEVILLE* PTSUNNY   75  72  88 CALM      30.03F
MARIETTA       LGT RAIN  79  72  78 NE7       30.02F
KENNESAW*      PTSUNNY   77  72  83 VRB5      29.99F
CANTON*        CLOUDY    77  70  78 CALM      30.04F
BLAIRSVILLE*   LGT RAIN N/A N/A N/A MISG      30.08F
$$

GAZ059>098-102>109-232200-
CENTRAL GEORGIA

CITY           SKY/WX    TMP DP  RH WIND       PRES   REMARKS
AUGUSTA-BUSH   CLOUDY    96  68  39 SW8       29.95F HX 101
AUGUSTA-DANIEL CLOUDY    94  68  42 SW7       29.98S HX  98
COLUMBUS       MOSUNNY   95  67  39 S12       29.96F HX  99
MACON          MOSUNNY   94  68  42 S8        29.97F HX  98
ROBINS AFB     MOSUNNY   97  69  40 S7        29.96F HX 102


CITY           SKY/WX    TMP DP  RH WIND       PRES   REMARKS
LAGRANGE*      MOSUNNY   96  71  44 SW7       29.98F HX 103
MILLEDGEVILLE* MOSUNNY   95  72  46 W7        29.97F HX 103
$$

GAZ099>101-110>166-232200-
SOUTH GEORGIA

CITY           SKY/WX    TMP DP  RH WIND       PRES   REMARKS
SAVANNAH       MOSUNNY   95  70  44 S12       29.96F HX 101
VALDOSTA       MOSUNNY   93  71  48 S6        29.97F HX 100
ALMA           MOSUNNY   95  68  41 VRB6      29.96F HX  99
ST SIMONS      SUNNY     91  71  51 SE12      29.98F HX  97
FT STEWART     MOSUNNY   96  68  39 SE6       29.93F HX 101
ALBANY         MOSUNNY   94  69  44 VRB5      29.99F HX  99
HUNTER AFB     SUNNY     92  79  64 S12       29.95S HX 109
MOODY AFB      MOSUNNY   94  69  43 SW7       29.97F HX  99
BRUNSWICK      SUNNY     93  73  52 S12       29.98F HX 102


CITY           SKY/WX    TMP DP  RH WIND       PRES   REMARKS
BAINBRIDGE*    MOSUNNY   95  72  46 CALM      29.97F HX 103
MOULTRIE*      MOSUNNY   91  70  49 SW5       29.98F HX  97
VIDALIA*       LGT RAIN  86  72  62 E12G18    29.98S HX  92
WAYCROSS*      MOSUNNY  100  66  33 S6        29.96F HX 104
DOUGLAS*       MOSUNNY   95  64  36 SW10      29.97F HX  97
$$




USA.gov is the U.S. government's official web portal to all federal, state and local government web resources and services.